<?xml version="1.0" encoding="UTF-8" standalone="no" ?>
<gpx xmlns="http://www.topografix.com/GPX/1/1" xmlns:xsi="http://www.w3.org/2001/XMLSchema-instance" xsi:schemaLocation="http://www.topografix.com/GPX/1/1 http://www.topografix.com/GPX/1/1/gpx.xsd" version="1.1" creator="VisuGPX - https://www.visugpx.com">
  <metadata>
    <name>MortagneSevre_GardeGrenon_9-21km</name>
    <desc><![CDATA[gnerando idor:8309080_9395868_14480589_14480594]]></desc>
  </metadata>
  <trk>
    <name><![CDATA[MortagneSevre_2Boucles_21.5km-8309080]]></name>
    <extensions>
      <line xmlns="http://www.topografix.com/GPX/gpx_style/0/2">
        <color>0000FF</color>
        <width>4</width>
      </line>
    </extensions>
    <trkseg>
      <trkpt lat="46.99286" lon="-0.9511">
        <ele>117</ele>
        <time>2023-11-05T14:38:24Z</time>
      </trkpt>
      <trkpt lat="46.99195" lon="-0.95131">
        <ele>117</ele>
        <time>2023-11-05T14:40:27Z</time>
      </trkpt>
      <trkpt lat="46.99146" lon="-0.95199">
        <ele>116</ele>
        <time>2023-11-05T14:41:57Z</time>
      </trkpt>
      <trkpt lat="46.99023" lon="-0.95298">
        <ele>112</ele>
        <time>2023-11-05T14:45:04Z</time>
      </trkpt>
      <trkpt lat="46.99" lon="-0.95314">
        <ele>110</ele>
        <time>2023-11-05T14:45:38Z</time>
      </trkpt>
      <trkpt lat="46.99002" lon="-0.95437">
        <ele>102</ele>
        <time>2023-11-05T14:47:30Z</time>
      </trkpt>
      <trkpt lat="46.98941" lon="-0.95473">
        <ele>97</ele>
        <time>2023-11-05T14:48:58Z</time>
      </trkpt>
      <trkpt lat="46.98908" lon="-0.95524">
        <ele>92</ele>
        <time>2023-11-05T14:50:02Z</time>
      </trkpt>
      <trkpt lat="46.98916" lon="-0.95585">
        <ele>82</ele>
        <time>2023-11-05T14:50:58Z</time>
      </trkpt>
      <trkpt lat="46.98854" lon="-0.95705">
        <ele>77</ele>
        <time>2023-11-05T14:53:16Z</time>
      </trkpt>
      <trkpt lat="46.98911" lon="-0.9572">
        <ele>70</ele>
        <time>2023-11-05T14:54:33Z</time>
      </trkpt>
      <trkpt lat="46.98988" lon="-0.95646">
        <ele>71</ele>
        <time>2023-11-05T14:56:36Z</time>
      </trkpt>
      <trkpt lat="46.99042" lon="-0.95605">
        <ele>80</ele>
        <time>2023-11-05T14:57:57Z</time>
      </trkpt>
      <trkpt lat="46.9916" lon="-0.95677">
        <ele>80</ele>
        <time>2023-11-05T15:00:47Z</time>
      </trkpt>
      <trkpt lat="46.99289" lon="-0.95858">
        <ele>81</ele>
        <time>2023-11-05T15:04:46Z</time>
      </trkpt>
      <trkpt lat="46.99316" lon="-0.95937">
        <ele>75</ele>
        <time>2023-11-05T15:06:06Z</time>
      </trkpt>
      <trkpt lat="46.99361" lon="-0.9599">
        <ele>73</ele>
        <time>2023-11-05T15:07:23Z</time>
      </trkpt>
      <trkpt lat="46.99432" lon="-0.96048">
        <ele>80</ele>
        <time>2023-11-05T15:09:12Z</time>
      </trkpt>
      <trkpt lat="46.99485" lon="-0.96255">
        <ele>78</ele>
        <time>2023-11-05T15:12:33Z</time>
      </trkpt>
      <trkpt lat="46.9955" lon="-0.96414">
        <ele>79</ele>
        <time>2023-11-05T15:15:22Z</time>
      </trkpt>
      <trkpt lat="46.99667" lon="-0.96671">
        <ele>76</ele>
        <time>2023-11-05T15:20:03Z</time>
      </trkpt>
      <trkpt lat="46.9957" lon="-0.96817">
        <ele>75</ele>
        <time>2023-11-05T15:23:08Z</time>
      </trkpt>
      <trkpt lat="46.99535" lon="-0.96967">
        <ele>75</ele>
        <time>2023-11-05T15:25:33Z</time>
      </trkpt>
      <trkpt lat="46.99532" lon="-0.97195">
        <ele>77</ele>
        <time>2023-11-05T15:29:00Z</time>
      </trkpt>
      <trkpt lat="46.99488" lon="-0.97375">
        <ele>68</ele>
        <time>2023-11-05T15:31:54Z</time>
      </trkpt>
      <trkpt lat="46.99526" lon="-0.97809">
        <ele>64</ele>
        <time>2023-11-05T15:38:32Z</time>
      </trkpt>
      <trkpt lat="46.99629" lon="-0.97856">
        <ele>69</ele>
        <time>2023-11-05T15:40:56Z</time>
      </trkpt>
      <trkpt lat="46.99775" lon="-0.98109">
        <ele>71</ele>
        <time>2023-11-05T15:45:58Z</time>
      </trkpt>
      <trkpt lat="46.99784" lon="-0.98276">
        <ele>69</ele>
        <time>2023-11-05T15:48:30Z</time>
      </trkpt>
      <trkpt lat="46.99836" lon="-0.98366">
        <ele>68</ele>
        <time>2023-11-05T15:50:18Z</time>
      </trkpt>
      <trkpt lat="46.9993" lon="-0.9874">
        <ele>63</ele>
        <time>2023-11-05T15:56:21Z</time>
      </trkpt>
      <trkpt lat="46.99992" lon="-0.98881">
        <ele>71</ele>
        <time>2023-11-05T15:58:53Z</time>
      </trkpt>
      <trkpt lat="46.99962" lon="-0.98924">
        <ele>67</ele>
        <time>2023-11-05T15:59:49Z</time>
      </trkpt>
      <trkpt lat="46.99968" lon="-0.99152">
        <ele>69</ele>
        <time>2023-11-05T16:03:17Z</time>
      </trkpt>
      <trkpt lat="47.0005" lon="-0.99298">
        <ele>70</ele>
        <time>2023-11-05T16:06:09Z</time>
      </trkpt>
      <trkpt lat="47.00085" lon="-0.99551">
        <ele>68</ele>
        <time>2023-11-05T16:10:04Z</time>
      </trkpt>
      <trkpt lat="47.0015" lon="-0.99873">
        <ele>72</ele>
        <time>2023-11-05T16:15:10Z</time>
      </trkpt>
      <trkpt lat="47.00132" lon="-1.0013">
        <ele>68</ele>
        <time>2023-11-05T16:19:05Z</time>
      </trkpt>
      <trkpt lat="47.00188" lon="-1.00276">
        <ele>66</ele>
        <time>2023-11-05T16:21:37Z</time>
      </trkpt>
      <trkpt lat="47.00226" lon="-1.01173">
        <ele>67</ele>
        <time>2023-11-05T16:35:15Z</time>
      </trkpt>
      <trkpt lat="47.00196" lon="-1.01233">
        <ele>67</ele>
        <time>2023-11-05T16:36:23Z</time>
      </trkpt>
      <trkpt lat="47.00185" lon="-1.01443">
        <ele>62</ele>
        <time>2023-11-05T16:39:34Z</time>
      </trkpt>
      <trkpt lat="47.00296" lon="-1.01491">
        <ele>65</ele>
        <time>2023-11-05T16:42:09Z</time>
      </trkpt>
      <trkpt lat="47.00185" lon="-1.01306">
        <ele>63</ele>
        <time>2023-11-05T16:45:53Z</time>
      </trkpt>
      <trkpt lat="47.00232" lon="-1.01113">
        <ele>67</ele>
        <time>2023-11-05T16:49:00Z</time>
      </trkpt>
      <trkpt lat="47.00158" lon="-1.00173">
        <ele>68</ele>
        <time>2023-11-05T17:03:21Z</time>
      </trkpt>
      <trkpt lat="47.00138" lon="-0.99813">
        <ele>72</ele>
        <time>2023-11-05T17:08:50Z</time>
      </trkpt>
      <trkpt lat="46.99992" lon="-0.99173">
        <ele>69</ele>
        <time>2023-11-05T17:19:04Z</time>
      </trkpt>
      <trkpt lat="46.99936" lon="-0.9877">
        <ele>63</ele>
        <time>2023-11-05T17:25:18Z</time>
      </trkpt>
      <trkpt lat="46.99839" lon="-0.98332">
        <ele>71</ele>
        <time>2023-11-05T17:32:17Z</time>
      </trkpt>
      <trkpt lat="47.00123" lon="-0.98315">
        <ele>103</ele>
        <time>2023-11-05T17:38:36Z</time>
      </trkpt>
      <trkpt lat="47.00287" lon="-0.98276">
        <ele>112</ele>
        <time>2023-11-05T17:42:18Z</time>
      </trkpt>
      <trkpt lat="47.00287" lon="-0.98203">
        <ele>111</ele>
        <time>2023-11-05T17:43:25Z</time>
      </trkpt>
      <trkpt lat="47.00381" lon="-0.9816">
        <ele>113</ele>
        <time>2023-11-05T17:45:36Z</time>
      </trkpt>
      <trkpt lat="47.00363" lon="-0.97984">
        <ele>119</ele>
        <time>2023-11-05T17:48:18Z</time>
      </trkpt>
      <trkpt lat="47.00158" lon="-0.97637">
        <ele>116</ele>
        <time>2023-11-05T17:55:16Z</time>
      </trkpt>
      <trkpt lat="47.00021" lon="-0.97165">
        <ele>109</ele>
        <time>2023-11-05T18:03:03Z</time>
      </trkpt>
      <trkpt lat="46.99965" lon="-0.97083">
        <ele>107</ele>
        <time>2023-11-05T18:04:48Z</time>
      </trkpt>
      <trkpt lat="46.99854" lon="-0.968">
        <ele>92</ele>
        <time>2023-11-05T18:09:45Z</time>
      </trkpt>
      <trkpt lat="46.99647" lon="-0.96508">
        <ele>87</ele>
        <time>2023-11-05T18:16:09Z</time>
      </trkpt>
      <trkpt lat="46.99459" lon="-0.96062">
        <ele>86</ele>
        <time>2023-11-05T18:24:06Z</time>
      </trkpt>
      <trkpt lat="46.99479" lon="-0.95822">
        <ele>104</ele>
        <time>2023-11-05T18:27:46Z</time>
      </trkpt>
      <trkpt lat="46.99409" lon="-0.95787">
        <ele>100</ele>
        <time>2023-11-05T18:29:25Z</time>
      </trkpt>
      <trkpt lat="46.99312" lon="-0.95922">
        <ele>76</ele>
        <time>2023-11-05T18:32:23Z</time>
      </trkpt>
      <trkpt lat="46.99194" lon="-0.95699">
        <ele>84</ele>
        <time>2023-11-05T18:36:40Z</time>
      </trkpt>
      <trkpt lat="46.99052" lon="-0.95606">
        <ele>81</ele>
        <time>2023-11-05T18:40:08Z</time>
      </trkpt>
      <trkpt lat="46.98976" lon="-0.95664">
        <ele>69</ele>
        <time>2023-11-05T18:42:02Z</time>
      </trkpt>
      <trkpt lat="46.98883" lon="-0.95726">
        <ele>72</ele>
        <time>2023-11-05T18:44:18Z</time>
      </trkpt>
      <trkpt lat="46.98855" lon="-0.95688">
        <ele>78</ele>
        <time>2023-11-05T18:45:09Z</time>
      </trkpt>
      <trkpt lat="46.98918" lon="-0.95603">
        <ele>79</ele>
        <time>2023-11-05T18:47:03Z</time>
      </trkpt>
      <trkpt lat="46.98911" lon="-0.95506">
        <ele>94</ele>
        <time>2023-11-05T18:48:32Z</time>
      </trkpt>
      <trkpt lat="46.98946" lon="-0.95457">
        <ele>99</ele>
        <time>2023-11-05T18:49:37Z</time>
      </trkpt>
      <trkpt lat="46.98999" lon="-0.95423">
        <ele>103</ele>
        <time>2023-11-05T18:50:54Z</time>
      </trkpt>
      <trkpt lat="46.98993" lon="-0.95312">
        <ele>110</ele>
        <time>2023-11-05T18:52:35Z</time>
      </trkpt>
      <trkpt lat="46.98862" lon="-0.95289">
        <ele>114</ele>
        <time>2023-11-05T18:55:31Z</time>
      </trkpt>
      <trkpt lat="46.98779" lon="-0.95281">
        <ele>117</ele>
        <time>2023-11-05T18:57:22Z</time>
      </trkpt>
      <trkpt lat="46.98738" lon="-0.95343">
        <ele>115</ele>
        <time>2023-11-05T18:58:41Z</time>
      </trkpt>
      <trkpt lat="46.98716" lon="-0.95317">
        <ele>118</ele>
        <time>2023-11-05T18:59:19Z</time>
      </trkpt>
      <trkpt lat="46.98643" lon="-0.95298">
        <ele>119</ele>
        <time>2023-11-05T19:00:58Z</time>
      </trkpt>
      <trkpt lat="46.98612" lon="-0.95236">
        <ele>118</ele>
        <time>2023-11-05T19:02:08Z</time>
      </trkpt>
      <trkpt lat="46.98438" lon="-0.95096">
        <ele>113</ele>
        <time>2023-11-05T19:06:32Z</time>
      </trkpt>
      <trkpt lat="46.98432" lon="-0.94976">
        <ele>112</ele>
        <time>2023-11-05T19:08:22Z</time>
      </trkpt>
      <trkpt lat="46.98509" lon="-0.94822">
        <ele>117</ele>
        <time>2023-11-05T19:11:16Z</time>
      </trkpt>
      <trkpt lat="46.98451" lon="-0.94772">
        <ele>119</ele>
        <time>2023-11-05T19:12:46Z</time>
      </trkpt>
      <trkpt lat="46.98023" lon="-0.94258">
        <ele>105</ele>
        <time>2023-11-05T19:25:04Z</time>
      </trkpt>
      <trkpt lat="46.9795" lon="-0.94289">
        <ele>102</ele>
        <time>2023-11-05T19:26:45Z</time>
      </trkpt>
      <trkpt lat="46.97814" lon="-0.94166">
        <ele>93</ele>
        <time>2023-11-05T19:30:19Z</time>
      </trkpt>
      <trkpt lat="46.97685" lon="-0.94049">
        <ele>99</ele>
        <time>2023-11-05T19:33:41Z</time>
      </trkpt>
      <trkpt lat="46.97626" lon="-0.93972">
        <ele>105</ele>
        <time>2023-11-05T19:35:27Z</time>
      </trkpt>
      <trkpt lat="46.97589" lon="-0.93927">
        <ele>107</ele>
        <time>2023-11-05T19:36:31Z</time>
      </trkpt>
      <trkpt lat="46.97541" lon="-0.93884">
        <ele>111</ele>
        <time>2023-11-05T19:37:46Z</time>
      </trkpt>
      <trkpt lat="46.97412" lon="-0.93824">
        <ele>123</ele>
        <time>2023-11-05T19:40:46Z</time>
      </trkpt>
      <trkpt lat="46.97308" lon="-0.93712">
        <ele>129</ele>
        <time>2023-11-05T19:43:39Z</time>
      </trkpt>
      <trkpt lat="46.97195" lon="-0.93503">
        <ele>137</ele>
        <time>2023-11-05T19:47:41Z</time>
      </trkpt>
      <trkpt lat="46.97094" lon="-0.9346">
        <ele>140</ele>
        <time>2023-11-05T19:50:02Z</time>
      </trkpt>
      <trkpt lat="46.96978" lon="-0.93225">
        <ele>130</ele>
        <time>2023-11-05T19:54:26Z</time>
      </trkpt>
      <trkpt lat="46.96892" lon="-0.9329">
        <ele>131</ele>
        <time>2023-11-05T19:56:35Z</time>
      </trkpt>
      <trkpt lat="46.96727" lon="-0.92991">
        <ele>107</ele>
        <time>2023-11-05T20:02:25Z</time>
      </trkpt>
      <trkpt lat="46.96655" lon="-0.93052">
        <ele>106</ele>
        <time>2023-11-05T20:04:16Z</time>
      </trkpt>
      <trkpt lat="46.96596" lon="-0.93258">
        <ele>107</ele>
        <time>2023-11-05T20:07:40Z</time>
      </trkpt>
      <trkpt lat="46.96567" lon="-0.93683">
        <ele>105</ele>
        <time>2023-11-05T20:14:09Z</time>
      </trkpt>
      <trkpt lat="46.9655" lon="-0.93875">
        <ele>99</ele>
        <time>2023-11-05T20:17:05Z</time>
      </trkpt>
      <trkpt lat="46.96596" lon="-0.94062">
        <ele>94</ele>
        <time>2023-11-05T20:20:06Z</time>
      </trkpt>
      <trkpt lat="46.9665" lon="-0.94091">
        <ele>100</ele>
        <time>2023-11-05T20:21:23Z</time>
      </trkpt>
      <trkpt lat="46.96786" lon="-0.94319">
        <ele>106</ele>
        <time>2023-11-05T20:25:58Z</time>
      </trkpt>
      <trkpt lat="46.96973" lon="-0.94225">
        <ele>110</ele>
        <time>2023-11-05T20:30:22Z</time>
      </trkpt>
      <trkpt lat="46.97104" lon="-0.9425">
        <ele>104</ele>
        <time>2023-11-05T20:33:19Z</time>
      </trkpt>
      <trkpt lat="46.97145" lon="-0.94145">
        <ele>112</ele>
        <time>2023-11-05T20:35:09Z</time>
      </trkpt>
      <trkpt lat="46.97298" lon="-0.94135">
        <ele>122</ele>
        <time>2023-11-05T20:38:33Z</time>
      </trkpt>
      <trkpt lat="46.97352" lon="-0.94077">
        <ele>124</ele>
        <time>2023-11-05T20:40:02Z</time>
      </trkpt>
      <trkpt lat="46.97498" lon="-0.94106">
        <ele>117</ele>
        <time>2023-11-05T20:43:19Z</time>
      </trkpt>
      <trkpt lat="46.97554" lon="-0.9421">
        <ele>111</ele>
        <time>2023-11-05T20:45:20Z</time>
      </trkpt>
      <trkpt lat="46.97535" lon="-0.94369">
        <ele>113</ele>
        <time>2023-11-05T20:47:47Z</time>
      </trkpt>
      <trkpt lat="46.97515" lon="-0.94506">
        <ele>109</ele>
        <time>2023-11-05T20:49:54Z</time>
      </trkpt>
      <trkpt lat="46.97377" lon="-0.94741">
        <ele>83</ele>
        <time>2023-11-05T20:54:37Z</time>
      </trkpt>
      <trkpt lat="46.97456" lon="-0.9486">
        <ele>82</ele>
        <time>2023-11-05T20:57:08Z</time>
      </trkpt>
      <trkpt lat="46.97557" lon="-0.94943">
        <ele>81</ele>
        <time>2023-11-05T20:59:42Z</time>
      </trkpt>
      <trkpt lat="46.97663" lon="-0.94874">
        <ele>78</ele>
        <time>2023-11-05T21:02:17Z</time>
      </trkpt>
      <trkpt lat="46.97722" lon="-0.94712">
        <ele>83</ele>
        <time>2023-11-05T21:05:04Z</time>
      </trkpt>
      <trkpt lat="46.9786" lon="-0.94737">
        <ele>81</ele>
        <time>2023-11-05T21:08:10Z</time>
      </trkpt>
      <trkpt lat="46.97968" lon="-0.94831">
        <ele>82</ele>
        <time>2023-11-05T21:10:57Z</time>
      </trkpt>
      <trkpt lat="46.9823" lon="-0.95242">
        <ele>78</ele>
        <time>2023-11-05T21:19:30Z</time>
      </trkpt>
      <trkpt lat="46.98341" lon="-0.95322">
        <ele>81</ele>
        <time>2023-11-05T21:22:15Z</time>
      </trkpt>
      <trkpt lat="46.98453" lon="-0.95452">
        <ele>82</ele>
        <time>2023-11-05T21:25:25Z</time>
      </trkpt>
      <trkpt lat="46.98498" lon="-0.95427">
        <ele>93</ele>
        <time>2023-11-05T21:26:29Z</time>
      </trkpt>
      <trkpt lat="46.98551" lon="-0.95547">
        <ele>94</ele>
        <time>2023-11-05T21:28:40Z</time>
      </trkpt>
      <trkpt lat="46.98756" lon="-0.95333">
        <ele>115</ele>
        <time>2023-11-05T21:34:15Z</time>
      </trkpt>
      <trkpt lat="46.98791" lon="-0.95275">
        <ele>117</ele>
        <time>2023-11-05T21:35:26Z</time>
      </trkpt>
      <trkpt lat="46.99008" lon="-0.95321">
        <ele>110</ele>
        <time>2023-11-05T21:40:18Z</time>
      </trkpt>
      <trkpt lat="46.99191" lon="-0.95127">
        <ele>117</ele>
        <time>2023-11-05T21:45:20Z</time>
      </trkpt>
      <trkpt lat="46.99286" lon="-0.95084">
        <ele>117</ele>
        <time>2023-11-05T21:47:33Z</time>
      </trkpt>
    </trkseg>
  </trk>
</gpx>